Weather History for Charlevoix, MI

Change the Weather History Date:

Wednesday, October 16, 2013

  Actual Average Record
Temperature  
Mean Temperature 54 °F -  
Max Temperature 58 °F 53 °F 62 °F (2010)
Min Temperature 50 °F 43 °F 33 °F (2010)
Degree Days  
Heating Degree Days 11    
Growing Degree Days 4 (Base 50)    
Moisture  
Dew Point 49 °F    
Average Humidity 89    
Maximum Humidity 100    
Minimum Humidity 70    
Precipitation  
Precipitation 0.00 in - - ()
Sea Level Pressure  
Sea Level Pressure 29.75 in    
Wind  
Wind Speed 9 mph (West)    
Max Wind Speed 17 mph    
Max Gust Speed 24 mph    
Visibility 9 miles    
Events Rain    
Averages and records for this station are not official NWS values.
T = Trace of Precipitation, MM = Missing Value Source: NWS Daily Summary

Daily Weather History Graph

Daily Weather History Graph

Search for Another Location

Airport:

Trip Planner

Search our weather history database for the weather conditions in past years. The results will help you decide how hot, cold, wet, or windy it might be!

Date:

Astronomy

Oct. 16, 2013 Rise Set
Actual Time 7:58 AM EDT 6:53 PM EDT
Civil Twilight 7:28 AM EDT 7:23 PM EDT
Nautical Twilight 6:54 AM EDT 7:57 PM EDT
Astronomical Twilight 6:20 AM EDT 8:31 PM EDT
Moon 5:37 PM EDT (10/16) 5:19 AM EDT (10/16)
Length of Visible Light 11h 54m
Length of Day
10h 54m
Waxing Gibbous, 94% of the Moon is Illuminated
Oct 16
Waxing Gibbous
Oct 18
Full
Oct 26
Last Quarter
Nov 3
New
Nov 10
First Quarter

Hourly Weather History & Observations

Time (EDT) Temp. Dew Point Humidity Pressure Visibility Wind Dir Wind Speed Gust Speed Precip Events Conditions
12:15 AM 58.1 °F 58.1 °F 100% 29.73 in 7.0 mi SSW 3.5 mph - N/A   Overcast
12:34 AM 58.1 °F 58.1 °F 100% 29.73 in 7.0 mi SSW 5.8 mph - N/A   Overcast
12:55 AM 56.7 °F 56.7 °F 100% 29.72 in 7.0 mi SSW 4.6 mph - N/A   Scattered Clouds
1:14 AM 57.4 °F 57.4 °F 100% 29.72 in 7.0 mi SW 3.5 mph - N/A   Mostly Cloudy
1:34 AM 57.2 °F 57.2 °F 100% 29.72 in 5.0 mi Calm Calm - N/A   Mostly Cloudy
1:55 AM 57.2 °F 57.2 °F 100% 29.71 in 7.0 mi South 3.5 mph - N/A   Mostly Cloudy
2:14 AM 56.5 °F 56.5 °F 100% 29.71 in 5.0 mi SSE 3.5 mph - N/A   Overcast
2:34 AM 56.5 °F 56.5 °F 100% 29.71 in 5.0 mi Calm Calm - N/A   Overcast
2:55 AM 57.2 °F 57.2 °F 100% 29.71 in 5.0 mi SW 9.2 mph - N/A   Overcast
3:14 AM 57.0 °F 57.0 °F 100% 29.71 in 7.0 mi SW 10.4 mph - N/A   Overcast
3:35 AM 56.3 °F 55.4 °F 97% 29.71 in 10.0 mi SW 8.1 mph 16.1 mph N/A   Overcast
3:55 AM 54.9 °F 53.2 °F 94% 29.71 in 10.0 mi SSW 5.8 mph - N/A   Scattered Clouds
4:15 AM 54.5 °F 52.7 °F 94% 29.70 in 10.0 mi SSW 6.9 mph - N/A   Mostly Cloudy
4:34 AM 54.5 °F 52.5 °F 93% 29.70 in 10.0 mi SSW 10.4 mph - N/A   Overcast
4:55 AM 54.0 °F 51.4 °F 91% 29.70 in 10.0 mi SSW 11.5 mph 18.4 mph N/A   Overcast
5:15 AM 53.6 °F 50.9 °F 91% 29.70 in 10.0 mi SSW 10.4 mph 18.4 mph N/A   Overcast
5:34 AM 53.1 °F 50.4 °F 91% 29.69 in 10.0 mi SW 10.4 mph - N/A   Overcast
5:55 AM 52.3 °F 49.6 °F 91% 29.69 in 10.0 mi SW 9.2 mph - N/A   Light Drizzle
6:14 AM 52.0 °F 49.1 °F 90% 29.69 in 10.0 mi SSW 5.8 mph - N/A   Overcast
6:35 AM 52.2 °F 48.6 °F 88% 29.69 in 10.0 mi SSW 11.5 mph 18.4 mph N/A   Overcast
6:54 AM 51.8 °F 49.1 °F 90% 29.70 in 10.0 mi SW 13.8 mph - N/A   Light Drizzle
7:14 AM 51.8 °F 48.6 °F 89% 29.70 in 10.0 mi SW 9.2 mph 16.1 mph N/A   Overcast
7:35 AM 51.8 °F 48.7 °F 89% 29.70 in 10.0 mi SSW 10.4 mph - N/A   Light Drizzle
7:54 AM 52.0 °F 49.1 °F 90% 29.69 in 10.0 mi SSW 5.8 mph - N/A   Overcast
8:14 AM 52.2 °F 49.5 °F 91% 29.69 in 10.0 mi SW 8.1 mph 16.1 mph N/A   Overcast
8:35 AM 52.7 °F 49.1 °F 88% 29.69 in 10.0 mi SW 15.0 mph 23.0 mph N/A   Overcast
8:54 AM 52.7 °F 48.9 °F 87% 29.70 in 10.0 mi SW 13.8 mph 18.4 mph N/A   Overcast
9:15 AM 52.9 °F 49.3 °F 88% 29.70 in 10.0 mi WSW 12.7 mph 20.7 mph N/A   Overcast
9:35 AM 53.6 °F 49.3 °F 85% 29.70 in 10.0 mi SW 12.7 mph 24.2 mph N/A   Overcast
9:54 AM 53.6 °F 49.1 °F 85% 29.70 in 10.0 mi WSW 15.0 mph 23.0 mph N/A   Overcast
10:15 AM 52.9 °F 49.1 °F 87% 29.70 in 10.0 mi WSW 17.3 mph 21.9 mph N/A Rain Light Rain
10:35 AM 53.1 °F 49.3 °F 87% 29.71 in 10.0 mi SW 11.5 mph - N/A   Overcast
10:54 AM 52.7 °F 50.0 °F 91% 29.70 in 10.0 mi WSW 15.0 mph 19.6 mph N/A   Overcast
11:15 AM 52.7 °F 50.9 °F 94% 29.70 in 4.0 mi WSW 13.8 mph 20.7 mph N/A Rain Light Rain
11:35 AM 52.3 °F 51.6 °F 97% 29.71 in 3.0 mi WSW 13.8 mph 17.3 mph N/A Rain Light Rain
11:54 AM 52.2 °F 51.8 °F 99% 29.71 in 3.0 mi SW 11.5 mph 16.1 mph N/A Rain Rain
12:15 PM 52.0 °F 51.8 °F 99% 29.71 in 2.0 mi SW 11.5 mph 16.1 mph N/A Rain Rain
12:34 PM 53.1 °F 52.7 °F 99% 29.72 in 3.0 mi NW 10.4 mph 16.1 mph N/A   Overcast
12:55 PM 52.9 °F 51.8 °F 96% 29.72 in 10.0 mi NW 12.7 mph 18.4 mph N/A   Overcast
1:15 PM 52.7 °F 51.1 °F 94% 29.73 in 10.0 mi WNW 13.8 mph 20.7 mph N/A   Overcast
1:34 PM 52.7 °F 50.4 °F 92% 29.73 in 10.0 mi NW 12.7 mph 19.6 mph N/A   Overcast
1:55 PM 52.7 °F 50.2 °F 91% 29.73 in 10.0 mi NW 13.8 mph 18.4 mph N/A   Overcast
2:14 PM 52.2 °F 50.4 °F 94% 29.74 in 10.0 mi WNW 12.7 mph 21.9 mph N/A   Overcast
2:34 PM 51.8 °F 49.8 °F 93% 29.74 in 10.0 mi WNW 15.0 mph 23.0 mph N/A   Overcast
2:55 PM 51.4 °F 49.1 °F 92% 29.75 in 10.0 mi NW 12.7 mph 19.6 mph N/A   Overcast
3:14 PM 51.4 °F 48.7 °F 90% 29.76 in 10.0 mi NW 15.0 mph 21.9 mph N/A   Overcast
3:34 PM 51.3 °F 48.6 °F 90% 29.77 in 10.0 mi NW 16.1 mph 23.0 mph N/A   Overcast
3:55 PM 51.4 °F 48.2 °F 89% 29.77 in 10.0 mi NW 12.7 mph 20.7 mph N/A   Overcast
4:14 PM 51.4 °F 48.2 °F 89% 29.77 in 10.0 mi NW 11.5 mph 18.4 mph N/A   Overcast
4:34 PM 51.6 °F 47.7 °F 86% 29.78 in 10.0 mi WNW 15.0 mph 21.9 mph N/A   Overcast
4:55 PM 51.4 °F 47.5 °F 86% 29.78 in 10.0 mi WNW 13.8 mph 23.0 mph N/A   Overcast
5:14 PM 51.1 °F 47.3 °F 87% 29.79 in 10.0 mi WNW 13.8 mph 20.7 mph N/A   Overcast
5:35 PM 51.1 °F 47.1 °F 86% 29.79 in 10.0 mi WNW 15.0 mph 20.7 mph N/A   Overcast
5:55 PM 50.9 °F 46.2 °F 84% 29.80 in 10.0 mi NW 13.8 mph 19.6 mph N/A   Overcast
6:14 PM 51.1 °F 46.4 °F 84% 29.80 in 10.0 mi WNW 13.8 mph 20.7 mph N/A   Overcast
6:35 PM 50.9 °F 45.1 °F 81% 29.81 in 10.0 mi NW 9.2 mph 20.7 mph N/A   Overcast
6:55 PM 50.9 °F 45.0 °F 80% 29.82 in 10.0 mi NW 12.7 mph 21.9 mph N/A   Overcast
7:14 PM 50.9 °F 44.6 °F 79% 29.82 in 10.0 mi NW 16.1 mph 24.2 mph N/A   Overcast
7:35 PM 50.9 °F 45.5 °F 82% 29.84 in 10.0 mi WNW 12.7 mph - N/A   Overcast
7:55 PM 50.9 °F 45.3 °F 81% 29.84 in 10.0 mi NW 13.8 mph 20.7 mph N/A   Overcast
8:14 PM 50.9 °F 45.0 °F 80% 29.85 in 10.0 mi NW 11.5 mph 16.1 mph N/A   Overcast
8:35 PM 50.9 °F 44.4 °F 78% 29.85 in 10.0 mi WNW 12.7 mph 16.1 mph N/A   Overcast
8:54 PM 50.7 °F 43.3 °F 76% 29.86 in 10.0 mi WNW 12.7 mph 21.9 mph N/A   Overcast
9:35 PM 50.5 °F 42.8 °F 75% 29.87 in 10.0 mi WNW 11.5 mph 16.1 mph N/A   Overcast
9:54 PM 50.5 °F 41.5 °F 71% 29.87 in 10.0 mi WNW 12.7 mph - N/A   Overcast
10:14 PM 50.7 °F 41.4 °F 70% 29.87 in 10.0 mi WNW 8.1 mph - N/A   Overcast
10:35 PM 50.4 °F 42.3 °F 74% 29.87 in 10.0 mi WNW 11.5 mph 18.4 mph N/A   Overcast
10:54 PM 50.2 °F 41.7 °F 73% 29.88 in 10.0 mi West 12.7 mph 17.3 mph N/A   Overcast
11:15 PM 50.2 °F 42.1 °F 74% 29.88 in 10.0 mi WNW 12.7 mph - N/A   Overcast
11:35 PM 50.0 °F 42.3 °F 75% 29.88 in 10.0 mi WNW 12.7 mph 20.7 mph N/A   Overcast
11:54 PM 50.0 °F 41.9 °F 74% 29.88 in 10.0 mi WNW 12.7 mph 17.3 mph N/A   Overcast